owner,sensor,date,latitude,longitude,air_temperature,qcFlag 
WAVCIS,ioos:station:WAVCIS:CSI06:1,2010-03-01T00:00:00Z,28.8667,-90.4833,11.59,11111222 
WAVCIS,ioos:station:WAVCIS:CSI06:1,2010-03-01T01:00:00Z,28.8667,-90.4833,11.64,11111222 
WAVCIS,ioos:station:WAVCIS:CSI06:1,2010-03-01T02:00:00Z,28.8667,-90.4833,11.87,11111222 
WAVCIS,ioos:station:WAVCIS:CSI06:1,2010-03-01T03:00:00Z,28.8667,-90.4833,12.01,11111222 
WAVCIS,ioos:station:WAVCIS:CSI06:1,2010-03-01T04:00:00Z,28.8667,-90.4833,11.56,11111222 
WAVCIS,ioos:station:WAVCIS:CSI06:1,2010-03-01T05:00:00Z,28.8667,-90.4833,11.51,11111222 
WAVCIS,ioos:station:WAVCIS:CSI06:1,2010-03-01T06:00:00Z,28.8667,-90.4833,11.67,11111222 
WAVCIS,ioos:station:WAVCIS:CSI06:1,2010-03-01T07:00:00Z,28.8667,-90.4833,12.09,11111222 
WAVCIS,ioos:station:WAVCIS:CSI06:1,2010-03-01T08:00:00Z,28.8667,-90.4833,12.68,11111222 
WAVCIS,ioos:station:WAVCIS:CSI06:1,2010-03-01T09:00:00Z,28.8667,-90.4833,13.13,11111222 
WAVCIS,ioos:station:WAVCIS:CSI06:1,2010-03-01T10:00:00Z,28.8667,-90.4833,12.27,11111222 
WAVCIS,ioos:station:WAVCIS:CSI06:1,2010-03-01T11:00:00Z,28.8667,-90.4833,12.08,11111222 
WAVCIS,ioos:station:WAVCIS:CSI06:1,2010-03-01T12:00:00Z,28.8667,-90.4833,12.35,11111222 
WAVCIS,ioos:station:WAVCIS:CSI06:1,2010-03-01T13:00:00Z,28.8667,-90.4833,12.13,11111222 
WAVCIS,ioos:station:WAVCIS:CSI06:1,2010-03-01T14:00:00Z,28.8667,-90.4833,12.28,11111222 
WAVCIS,ioos:station:WAVCIS:CSI06:1,2010-03-01T15:00:00Z,28.8667,-90.4833,12.18,11111222 
WAVCIS,ioos:station:WAVCIS:CSI06:1,2010-03-01T16:00:00Z,28.8667,-90.4833,12.01,11111222 
WAVCIS,ioos:station:WAVCIS:CSI06:1,2010-03-01T17:00:00Z,28.8667,-90.4833,12.36,11111222 
WAVCIS,ioos:station:WAVCIS:CSI06:1,2010-03-01T18:00:00Z,28.8667,-90.4833,13.3,11111222 
WAVCIS,ioos:station:WAVCIS:CSI06:1,2010-03-01T19:00:00Z,28.8667,-90.4833,14.85,11111222 
WAVCIS,ioos:station:WAVCIS:CSI06:1,2010-03-01T20:00:00Z,28.8667,-90.4833,15.12,11111222 
WAVCIS,ioos:station:WAVCIS:CSI06:1,2010-03-01T21:00:00Z,28.8667,-90.4833,15.69,11111222 
WAVCIS,ioos:station:WAVCIS:CSI06:1,2010-03-01T22:00:00Z,28.8667,-90.4833,16.08,11111222 
WAVCIS,ioos:station:WAVCIS:CSI06:1,2010-03-01T23:00:00Z,28.8667,-90.4833,16.13,11111222 
WAVCIS,ioos:station:WAVCIS:CSI06:1,2010-03-02T00:00:00Z,28.8667,-90.4833,16.48,11111222 
WAVCIS,ioos:station:WAVCIS:CSI06:1,2010-03-02T01:00:00Z,28.8667,-90.4833,10.07,11111222 
WAVCIS,ioos:station:WAVCIS:CSI06:1,2010-03-02T02:00:00Z,28.8667,-90.4833,10.39,11111222 
WAVCIS,ioos:station:WAVCIS:CSI06:1,2010-03-02T03:00:00Z,28.8667,-90.4833,10.77,11111222 
WAVCIS,ioos:station:WAVCIS:CSI06:1,2010-03-02T04:00:00Z,28.8667,-90.4833,10.6,11111222 
WAVCIS,ioos:station:WAVCIS:CSI06:1,2010-03-02T05:00:00Z,28.8667,-90.4833,10.53,11111222 
WAVCIS,ioos:station:WAVCIS:CSI06:1,2010-03-02T06:00:00Z,28.8667,-90.4833,9.58,11111222 
WAVCIS,ioos:station:WAVCIS:CSI06:1,2010-03-02T07:00:00Z,28.8667,-90.4833,9.46,11111222 
WAVCIS,ioos:station:WAVCIS:CSI06:1,2010-03-02T08:00:00Z,28.8667,-90.4833,9.37,11111222 
WAVCIS,ioos:station:WAVCIS:CSI06:1,2010-03-02T09:00:00Z,28.8667,-90.4833,9.07,11111222 
WAVCIS,ioos:station:WAVCIS:CSI06:1,2010-03-02T10:00:00Z,28.8667,-90.4833,8.66,11111222 
WAVCIS,ioos:station:WAVCIS:CSI06:1,2010-03-02T11:00:00Z,28.8667,-90.4833,8.35,11111222 
WAVCIS,ioos:station:WAVCIS:CSI06:1,2010-03-02T12:00:00Z,28.8667,-90.4833,7.17,11111222 
WAVCIS,ioos:station:WAVCIS:CSI06:1,2010-03-02T13:00:00Z,28.8667,-90.4833,6.55,11111222 
WAVCIS,ioos:station:WAVCIS:CSI06:1,2010-03-02T14:00:00Z,28.8667,-90.4833,6.07,11111222 
WAVCIS,ioos:station:WAVCIS:CSI06:1,2010-03-02T15:00:00Z,28.8667,-90.4833,6.18,11111222 
WAVCIS,ioos:station:WAVCIS:CSI06:1,2010-03-02T16:00:00Z,28.8667,-90.4833,6.73,11111222 
WAVCIS,ioos:station:WAVCIS:CSI06:1,2010-03-02T17:00:00Z,28.8667,-90.4833,7.17,11111222 
WAVCIS,ioos:station:WAVCIS:CSI06:1,2010-03-02T18:00:00Z,28.8667,-90.4833,6.99,11111222 
WAVCIS,ioos:station:WAVCIS:CSI06:1,2010-03-02T19:00:00Z,28.8667,-90.4833,7.34,11111222 
WAVCIS,ioos:station:WAVCIS:CSI06:1,2010-03-02T20:00:00Z,28.8667,-90.4833,7.7,11111222 
WAVCIS,ioos:station:WAVCIS:CSI06:1,2010-03-02T21:00:00Z,28.8667,-90.4833,8.04,11111222 
WAVCIS,ioos:station:WAVCIS:CSI06:1,2010-03-02T22:00:00Z,28.8667,-90.4833,8.24,11111222 
WAVCIS,ioos:station:WAVCIS:CSI06:1,2010-03-02T23:00:00Z,28.8667,-90.4833,8.21,11111222 
WAVCIS,ioos:station:WAVCIS:CSI06:1,2010-03-03T00:00:00Z,28.8667,-90.4833,8.31,11111222 
WAVCIS,ioos:station:WAVCIS:CSI06:1,2010-03-03T01:00:00Z,28.8667,-90.4833,7.94,11111222 
WAVCIS,ioos:station:WAVCIS:CSI06:1,2010-03-03T02:00:00Z,28.8667,-90.4833,7.78,11111222 
WAVCIS,ioos:station:WAVCIS:CSI06:1,2010-03-03T03:00:00Z,28.8667,-90.4833,7.64,11111222 
WAVCIS,ioos:station:WAVCIS:CSI06:1,2010-03-03T04:00:00Z,28.8667,-90.4833,7.27,11111222 
WAVCIS,ioos:station:WAVCIS:CSI06:1,2010-03-03T05:00:00Z,28.8667,-90.4833,7.13,11111222 
WAVCIS,ioos:station:WAVCIS:CSI06:1,2010-03-03T06:00:00Z,28.8667,-90.4833,6.97,11111222 
WAVCIS,ioos:station:WAVCIS:CSI06:1,2010-03-03T07:00:00Z,28.8667,-90.4833,6.65,11111222 
WAVCIS,ioos:station:WAVCIS:CSI06:1,2010-03-03T08:00:00Z,28.8667,-90.4833,6.42,11111222 
WAVCIS,ioos:station:WAVCIS:CSI06:1,2010-03-03T09:00:00Z,28.8667,-90.4833,6.37,11111222 
WAVCIS,ioos:station:WAVCIS:CSI06:1,2010-03-03T10:00:00Z,28.8667,-90.4833,6.15,11111222 
WAVCIS,ioos:station:WAVCIS:CSI06:1,2010-03-03T11:00:00Z,28.8667,-90.4833,6.02,11111222 
WAVCIS,ioos:station:WAVCIS:CSI06:1,2010-03-03T12:00:00Z,28.8667,-90.4833,5.76,11111222 
WAVCIS,ioos:station:WAVCIS:CSI06:1,2010-03-03T13:00:00Z,28.8667,-90.4833,5.71,11111222 
WAVCIS,ioos:station:WAVCIS:CSI06:1,2010-03-03T14:00:00Z,28.8667,-90.4833,6.06,11111222 
WAVCIS,ioos:station:WAVCIS:CSI06:1,2010-03-03T15:00:00Z,28.8667,-90.4833,6.28,11111222 
WAVCIS,ioos:station:WAVCIS:CSI06:1,2010-03-03T16:00:00Z,28.8667,-90.4833,5.93,11111222 
WAVCIS,ioos:station:WAVCIS:CSI06:1,2010-03-03T17:00:00Z,28.8667,-90.4833,6.13,11111222 
WAVCIS,ioos:station:WAVCIS:CSI06:1,2010-03-03T18:00:00Z,28.8667,-90.4833,6.36,11111222 
WAVCIS,ioos:station:WAVCIS:CSI06:1,2010-03-03T19:00:00Z,28.8667,-90.4833,6.83,11111222 
WAVCIS,ioos:station:WAVCIS:CSI06:1,2010-03-03T20:00:00Z,28.8667,-90.4833,6.95,11111222 
WAVCIS,ioos:station:WAVCIS:CSI06:1,2010-03-03T21:00:00Z,28.8667,-90.4833,7.3,11111222 
WAVCIS,ioos:station:WAVCIS:CSI06:1,2010-03-03T22:00:00Z,28.8667,-90.4833,7.5,11111222 
WAVCIS,ioos:station:WAVCIS:CSI06:1,2010-03-03T23:00:00Z,28.8667,-90.4833,7.94,11111222 
WAVCIS,ioos:station:WAVCIS:CSI06:1,2010-03-04T00:00:00Z,28.8667,-90.4833,8.36,11111222 
WAVCIS,ioos:station:WAVCIS:CSI06:1,2010-03-04T01:00:00Z,28.8667,-90.4833,9.05,11111222 
WAVCIS,ioos:station:WAVCIS:CSI06:1,2010-03-04T02:00:00Z,28.8667,-90.4833,9.25,11111222 
WAVCIS,ioos:station:WAVCIS:CSI06:1,2010-03-04T03:00:00Z,28.8667,-90.4833,9.94,11111222 
WAVCIS,ioos:station:WAVCIS:CSI06:1,2010-03-04T04:00:00Z,28.8667,-90.4833,10.05,11111222 
WAVCIS,ioos:station:WAVCIS:CSI06:1,2010-03-04T05:00:00Z,28.8667,-90.4833,10.29,11111222 
WAVCIS,ioos:station:WAVCIS:CSI06:1,2010-03-04T06:00:00Z,28.8667,-90.4833,10.0,11111222 
WAVCIS,ioos:station:WAVCIS:CSI06:1,2010-03-04T07:00:00Z,28.8667,-90.4833,9.4,11111222 
WAVCIS,ioos:station:WAVCIS:CSI06:1,2010-03-04T08:00:00Z,28.8667,-90.4833,9.32,11111222 
WAVCIS,ioos:station:WAVCIS:CSI06:1,2010-03-04T09:00:00Z,28.8667,-90.4833,8.97,11111222 
WAVCIS,ioos:station:WAVCIS:CSI06:1,2010-03-04T10:00:00Z,28.8667,-90.4833,9.04,11111222 
WAVCIS,ioos:station:WAVCIS:CSI06:1,2010-03-04T11:00:00Z,28.8667,-90.4833,9.12,11111222 
WAVCIS,ioos:station:WAVCIS:CSI06:1,2010-03-04T12:00:00Z,28.8667,-90.4833,8.87,11111222 
WAVCIS,ioos:station:WAVCIS:CSI06:1,2010-03-04T13:00:00Z,28.8667,-90.4833,9.08,11111222 
WAVCIS,ioos:station:WAVCIS:CSI06:1,2010-03-04T14:00:00Z,28.8667,-90.4833,8.96,11111222 
WAVCIS,ioos:station:WAVCIS:CSI06:1,2010-03-04T15:00:00Z,28.8667,-90.4833,8.85,11111222 
WAVCIS,ioos:station:WAVCIS:CSI06:1,2010-03-04T16:00:00Z,28.8667,-90.4833,8.89,11111222 
WAVCIS,ioos:station:WAVCIS:CSI06:1,2010-03-04T17:00:00Z,28.8667,-90.4833,9.22,11111222 
WAVCIS,ioos:station:WAVCIS:CSI06:1,2010-03-04T18:00:00Z,28.8667,-90.4833,9.46,11111222 
WAVCIS,ioos:station:WAVCIS:CSI06:1,2010-03-04T19:00:00Z,28.8667,-90.4833,10.25,11111222 
WAVCIS,ioos:station:WAVCIS:CSI06:1,2010-03-04T20:00:00Z,28.8667,-90.4833,10.2,11111222 
WAVCIS,ioos:station:WAVCIS:CSI06:1,2010-03-04T21:00:00Z,28.8667,-90.4833,10.25,11111222 
WAVCIS,ioos:station:WAVCIS:CSI06:1,2010-03-04T22:00:00Z,28.8667,-90.4833,10.91,11111222 
WAVCIS,ioos:station:WAVCIS:CSI06:1,2010-03-04T23:00:00Z,28.8667,-90.4833,10.89,11111222 
WAVCIS,ioos:station:WAVCIS:CSI06:1,2010-03-05T00:00:00Z,28.8667,-90.4833,9.78,11111222 
WAVCIS,ioos:station:WAVCIS:CSI06:1,2010-03-05T01:00:00Z,28.8667,-90.4833,9.75,11111222 
WAVCIS,ioos:station:WAVCIS:CSI06:1,2010-03-05T02:00:00Z,28.8667,-90.4833,9.87,11111222 
WAVCIS,ioos:station:WAVCIS:CSI06:1,2010-03-05T03:00:00Z,28.8667,-90.4833,10.0,11111222 
WAVCIS,ioos:station:WAVCIS:CSI06:1,2010-03-05T04:00:00Z,28.8667,-90.4833,10.09,11111222 
WAVCIS,ioos:station:WAVCIS:CSI06:1,2010-03-05T05:00:00Z,28.8667,-90.4833,10.08,11111222 
WAVCIS,ioos:station:WAVCIS:CSI06:1,2010-03-05T06:00:00Z,28.8667,-90.4833,10.01,11111222 
WAVCIS,ioos:station:WAVCIS:CSI06:1,2010-03-05T07:00:00Z,28.8667,-90.4833,10.02,11111222 
WAVCIS,ioos:station:WAVCIS:CSI06:1,2010-03-05T08:00:00Z,28.8667,-90.4833,10.1,11111222 
WAVCIS,ioos:station:WAVCIS:CSI06:1,2010-03-05T09:00:00Z,28.8667,-90.4833,10.05,11111222 
WAVCIS,ioos:station:WAVCIS:CSI06:1,2010-03-05T10:00:00Z,28.8667,-90.4833,9.93,11111222 
WAVCIS,ioos:station:WAVCIS:CSI06:1,2010-03-05T11:00:00Z,28.8667,-90.4833,9.82,11111222 
WAVCIS,ioos:station:WAVCIS:CSI06:1,2010-03-05T12:00:00Z,28.8667,-90.4833,10.0,11111222 
WAVCIS,ioos:station:WAVCIS:CSI06:1,2010-03-05T13:00:00Z,28.8667,-90.4833,10.08,11111222 
WAVCIS,ioos:station:WAVCIS:CSI06:1,2010-03-05T14:00:00Z,28.8667,-90.4833,10.27,11111222 
WAVCIS,ioos:station:WAVCIS:CSI06:1,2010-03-05T15:00:00Z,28.8667,-90.4833,10.3,11111222 
WAVCIS,ioos:station:WAVCIS:CSI06:1,2010-03-05T16:00:00Z,28.8667,-90.4833,10.54,11111222 
WAVCIS,ioos:station:WAVCIS:CSI06:1,2010-03-05T17:00:00Z,28.8667,-90.4833,12.03,11111222 
WAVCIS,ioos:station:WAVCIS:CSI06:1,2010-03-05T18:00:00Z,28.8667,-90.4833,11.16,11111222 
WAVCIS,ioos:station:WAVCIS:CSI06:1,2010-03-05T19:00:00Z,28.8667,-90.4833,11.45,11111222 
WAVCIS,ioos:station:WAVCIS:CSI06:1,2010-03-05T20:00:00Z,28.8667,-90.4833,12.02,11111222 
WAVCIS,ioos:station:WAVCIS:CSI06:1,2010-03-05T21:00:00Z,28.8667,-90.4833,12.53,11111222 
WAVCIS,ioos:station:WAVCIS:CSI06:1,2010-03-05T22:00:00Z,28.8667,-90.4833,12.47,11111222 
WAVCIS,ioos:station:WAVCIS:CSI06:1,2010-03-05T23:00:00Z,28.8667,-90.4833,12.25,11111222 
WAVCIS,ioos:station:WAVCIS:CSI06:1,2010-03-06T00:00:00Z,28.8667,-90.4833,12.3,11111222 
WAVCIS,ioos:station:WAVCIS:CSI06:1,2010-03-06T01:00:00Z,28.8667,-90.4833,12.26,11111222 
WAVCIS,ioos:station:WAVCIS:CSI06:1,2010-03-06T02:00:00Z,28.8667,-90.4833,12.32,11111222 
WAVCIS,ioos:station:WAVCIS:CSI06:1,2010-03-06T03:00:00Z,28.8667,-90.4833,12.4,11111222 
WAVCIS,ioos:station:WAVCIS:CSI06:1,2010-03-06T04:00:00Z,28.8667,-90.4833,12.37,11111222 
WAVCIS,ioos:station:WAVCIS:CSI06:1,2010-03-06T05:00:00Z,28.8667,-90.4833,12.33,11111222 
WAVCIS,ioos:station:WAVCIS:CSI06:1,2010-03-06T06:00:00Z,28.8667,-90.4833,12.3,11111222 
WAVCIS,ioos:station:WAVCIS:CSI06:1,2010-03-06T07:00:00Z,28.8667,-90.4833,12.31,11111222 
WAVCIS,ioos:station:WAVCIS:CSI06:1,2010-03-06T08:00:00Z,28.8667,-90.4833,12.18,11111222 
WAVCIS,ioos:station:WAVCIS:CSI06:1,2010-03-06T09:00:00Z,28.8667,-90.4833,13.07,11111222 
WAVCIS,ioos:station:WAVCIS:CSI06:1,2010-03-06T10:00:00Z,28.8667,-90.4833,11.68,11111222 
WAVCIS,ioos:station:WAVCIS:CSI06:1,2010-03-06T11:00:00Z,28.8667,-90.4833,11.81,11111222 
WAVCIS,ioos:station:WAVCIS:CSI06:1,2010-03-06T12:00:00Z,28.8667,-90.4833,11.35,11111222 
WAVCIS,ioos:station:WAVCIS:CSI06:1,2010-03-06T13:00:00Z,28.8667,-90.4833,11.22,11111222 
WAVCIS,ioos:station:WAVCIS:CSI06:1,2010-03-06T14:00:00Z,28.8667,-90.4833,11.68,11111222 
WAVCIS,ioos:station:WAVCIS:CSI06:1,2010-03-06T15:00:00Z,28.8667,-90.4833,11.81,11111222 
WAVCIS,ioos:station:WAVCIS:CSI06:1,2010-03-06T16:00:00Z,28.8667,-90.4833,12.15,11111222 
WAVCIS,ioos:station:WAVCIS:CSI06:1,2010-03-06T17:00:00Z,28.8667,-90.4833,11.94,11111222 
WAVCIS,ioos:station:WAVCIS:CSI06:1,2010-03-06T18:00:00Z,28.8667,-90.4833,12.35,11111222 
WAVCIS,ioos:station:WAVCIS:CSI06:1,2010-03-06T19:00:00Z,28.8667,-90.4833,12.5,11111222 
WAVCIS,ioos:station:WAVCIS:CSI06:1,2010-03-06T20:00:00Z,28.8667,-90.4833,12.69,11111222 
WAVCIS,ioos:station:WAVCIS:CSI06:1,2010-03-06T21:00:00Z,28.8667,-90.4833,12.78,11111222 
WAVCIS,ioos:station:WAVCIS:CSI06:1,2010-03-06T22:00:00Z,28.8667,-90.4833,13.03,11111222 
WAVCIS,ioos:station:WAVCIS:CSI06:1,2010-03-06T23:00:00Z,28.8667,-90.4833,13.08,11111222 
WAVCIS,ioos:station:WAVCIS:CSI06:1,2010-03-07T00:00:00Z,28.8667,-90.4833,12.79,11111222 
WAVCIS,ioos:station:WAVCIS:CSI06:1,2010-03-07T01:00:00Z,28.8667,-90.4833,12.81,11111222 
WAVCIS,ioos:station:WAVCIS:CSI06:1,2010-03-07T02:00:00Z,28.8667,-90.4833,12.91,11111222 
WAVCIS,ioos:station:WAVCIS:CSI06:1,2010-03-07T03:00:00Z,28.8667,-90.4833,12.87,11111222 
WAVCIS,ioos:station:WAVCIS:CSI06:1,2010-03-07T04:00:00Z,28.8667,-90.4833,12.83,11111222 
WAVCIS,ioos:station:WAVCIS:CSI06:1,2010-03-07T05:00:00Z,28.8667,-90.4833,12.91,11111222 
WAVCIS,ioos:station:WAVCIS:CSI06:1,2010-03-07T06:00:00Z,28.8667,-90.4833,12.86,11111222 
WAVCIS,ioos:station:WAVCIS:CSI06:1,2010-03-07T07:00:00Z,28.8667,-90.4833,12.79,11111222 
WAVCIS,ioos:station:WAVCIS:CSI06:1,2010-03-07T08:00:00Z,28.8667,-90.4833,12.65,11111222 
WAVCIS,ioos:station:WAVCIS:CSI06:1,2010-03-07T09:00:00Z,28.8667,-90.4833,12.47,11111222 
WAVCIS,ioos:station:WAVCIS:CSI06:1,2010-03-07T10:00:00Z,28.8667,-90.4833,12.45,11111222 
WAVCIS,ioos:station:WAVCIS:CSI06:1,2010-03-07T11:00:00Z,28.8667,-90.4833,12.43,11111222 
WAVCIS,ioos:station:WAVCIS:CSI06:1,2010-03-07T12:00:00Z,28.8667,-90.4833,12.43,11111222 
WAVCIS,ioos:station:WAVCIS:CSI06:1,2010-03-07T13:00:00Z,28.8667,-90.4833,12.48,11111222 
WAVCIS,ioos:station:WAVCIS:CSI06:1,2010-03-07T14:00:00Z,28.8667,-90.4833,13.07,11111222 
WAVCIS,ioos:station:WAVCIS:CSI06:1,2010-03-07T15:00:00Z,28.8667,-90.4833,13.03,11111222 
WAVCIS,ioos:station:WAVCIS:CSI06:1,2010-03-07T16:00:00Z,28.8667,-90.4833,12.86,11111222 
WAVCIS,ioos:station:WAVCIS:CSI06:1,2010-03-07T17:00:00Z,28.8667,-90.4833,12.67,11111222 
WAVCIS,ioos:station:WAVCIS:CSI06:1,2010-03-07T18:00:00Z,28.8667,-90.4833,12.73,11111222 
WAVCIS,ioos:station:WAVCIS:CSI06:1,2010-03-07T19:00:00Z,28.8667,-90.4833,13.07,11111222 
WAVCIS,ioos:station:WAVCIS:CSI06:1,2010-03-07T20:00:00Z,28.8667,-90.4833,13.33,11111222 
WAVCIS,ioos:station:WAVCIS:CSI06:1,2010-03-07T21:00:00Z,28.8667,-90.4833,13.48,11111222 
WAVCIS,ioos:station:WAVCIS:CSI06:1,2010-03-07T22:00:00Z,28.8667,-90.4833,13.79,11111222 
WAVCIS,ioos:station:WAVCIS:CSI06:1,2010-03-07T23:00:00Z,28.8667,-90.4833,13.88,11111222 
WAVCIS,ioos:station:WAVCIS:CSI06:1,2010-03-08T00:00:00Z,28.8667,-90.4833,13.63,11111222 
WAVCIS,ioos:station:WAVCIS:CSI06:1,2010-03-08T01:00:00Z,28.8667,-90.4833,13.58,11111222 
WAVCIS,ioos:station:WAVCIS:CSI06:1,2010-03-08T02:00:00Z,28.8667,-90.4833,13.67,11111222 
WAVCIS,ioos:station:WAVCIS:CSI06:1,2010-03-08T03:00:00Z,28.8667,-90.4833,13.67,11111222 
WAVCIS,ioos:station:WAVCIS:CSI06:1,2010-03-08T04:00:00Z,28.8667,-90.4833,13.65,11111222 
WAVCIS,ioos:station:WAVCIS:CSI06:1,2010-03-08T05:00:00Z,28.8667,-90.4833,13.61,11111222 
WAVCIS,ioos:station:WAVCIS:CSI06:1,2010-03-08T06:00:00Z,28.8667,-90.4833,13.59,11111222 
WAVCIS,ioos:station:WAVCIS:CSI06:1,2010-03-08T07:00:00Z,28.8667,-90.4833,13.45,11111222 
WAVCIS,ioos:station:WAVCIS:CSI06:1,2010-03-08T08:00:00Z,28.8667,-90.4833,13.45,11111222 
WAVCIS,ioos:station:WAVCIS:CSI06:1,2010-03-08T09:00:00Z,28.8667,-90.4833,13.6,11111222 
WAVCIS,ioos:station:WAVCIS:CSI06:1,2010-03-08T10:00:00Z,28.8667,-90.4833,13.66,11111222 
WAVCIS,ioos:station:WAVCIS:CSI06:1,2010-03-08T11:00:00Z,28.8667,-90.4833,13.82,11111222 
WAVCIS,ioos:station:WAVCIS:CSI06:1,2010-03-08T12:00:00Z,28.8667,-90.4833,13.86,11111222 
WAVCIS,ioos:station:WAVCIS:CSI06:1,2010-03-08T13:00:00Z,28.8667,-90.4833,13.82,11111222 
WAVCIS,ioos:station:WAVCIS:CSI06:1,2010-03-08T14:00:00Z,28.8667,-90.4833,13.89,11111222 
WAVCIS,ioos:station:WAVCIS:CSI06:1,2010-03-08T15:00:00Z,28.8667,-90.4833,13.93,11111222 
WAVCIS,ioos:station:WAVCIS:CSI06:1,2010-03-08T16:00:00Z,28.8667,-90.4833,14.13,11111222 
WAVCIS,ioos:station:WAVCIS:CSI06:1,2010-03-08T17:00:00Z,28.8667,-90.4833,14.15,11111222 
WAVCIS,ioos:station:WAVCIS:CSI06:1,2010-03-08T18:00:00Z,28.8667,-90.4833,14.5,11111222 
WAVCIS,ioos:station:WAVCIS:CSI06:1,2010-03-08T19:00:00Z,28.8667,-90.4833,14.86,11111222 
WAVCIS,ioos:station:WAVCIS:CSI06:1,2010-03-08T20:00:00Z,28.8667,-90.4833,14.92,11111222 
WAVCIS,ioos:station:WAVCIS:CSI06:1,2010-03-08T21:00:00Z,28.8667,-90.4833,14.42,11111222 
WAVCIS,ioos:station:WAVCIS:CSI06:1,2010-03-08T22:00:00Z,28.8667,-90.4833,14.44,11111222 
WAVCIS,ioos:station:WAVCIS:CSI06:1,2010-03-08T23:00:00Z,28.8667,-90.4833,14.53,11111222 
WAVCIS,ioos:station:WAVCIS:CSI06:1,2010-03-09T00:00:00Z,28.8667,-90.4833,14.79,11111222 
WAVCIS,ioos:station:WAVCIS:CSI06:1,2010-03-09T01:00:00Z,28.8667,-90.4833,14.94,11111222 
WAVCIS,ioos:station:WAVCIS:CSI06:1,2010-03-09T02:00:00Z,28.8667,-90.4833,15.61,11111222 
WAVCIS,ioos:station:WAVCIS:CSI06:1,2010-03-09T03:00:00Z,28.8667,-90.4833,15.93,11111222 
WAVCIS,ioos:station:WAVCIS:CSI06:1,2010-03-09T04:00:00Z,28.8667,-90.4833,15.95,11111222 
WAVCIS,ioos:station:WAVCIS:CSI06:1,2010-03-09T05:00:00Z,28.8667,-90.4833,16.24,11111222 
WAVCIS,ioos:station:WAVCIS:CSI06:1,2010-03-09T06:00:00Z,28.8667,-90.4833,16.4,11111222 
WAVCIS,ioos:station:WAVCIS:CSI06:1,2010-03-09T07:00:00Z,28.8667,-90.4833,16.62,11111222 
WAVCIS,ioos:station:WAVCIS:CSI06:1,2010-03-09T08:00:00Z,28.8667,-90.4833,16.36,11111222 
WAVCIS,ioos:station:WAVCIS:CSI06:1,2010-03-09T09:00:00Z,28.8667,-90.4833,16.42,11111222 
WAVCIS,ioos:station:WAVCIS:CSI06:1,2010-03-09T10:00:00Z,28.8667,-90.4833,16.55,11111222 
WAVCIS,ioos:station:WAVCIS:CSI06:1,2010-03-09T11:00:00Z,28.8667,-90.4833,16.75,11111222 
WAVCIS,ioos:station:WAVCIS:CSI06:1,2010-03-09T12:00:00Z,28.8667,-90.4833,15.69,11111222 
WAVCIS,ioos:station:WAVCIS:CSI06:1,2010-03-09T13:00:00Z,28.8667,-90.4833,14.89,11111222 
WAVCIS,ioos:station:WAVCIS:CSI06:1,2010-03-09T14:00:00Z,28.8667,-90.4833,14.86,11111222 
WAVCIS,ioos:station:WAVCIS:CSI06:1,2010-03-09T15:00:00Z,28.8667,-90.4833,15.16,11111222 
WAVCIS,ioos:station:WAVCIS:CSI06:1,2010-03-09T16:00:00Z,28.8667,-90.4833,16.0,11111222 
WAVCIS,ioos:station:WAVCIS:CSI06:1,2010-03-09T17:00:00Z,28.8667,-90.4833,16.92,11111222 
WAVCIS,ioos:station:WAVCIS:CSI06:1,2010-03-09T18:00:00Z,28.8667,-90.4833,17.45,11111222 
WAVCIS,ioos:station:WAVCIS:CSI06:1,2010-03-09T19:00:00Z,28.8667,-90.4833,17.25,11111222 
WAVCIS,ioos:station:WAVCIS:CSI06:1,2010-03-09T20:00:00Z,28.8667,-90.4833,17.2,11111222 
WAVCIS,ioos:station:WAVCIS:CSI06:1,2010-03-09T21:00:00Z,28.8667,-90.4833,17.43,11111222 
WAVCIS,ioos:station:WAVCIS:CSI06:1,2010-03-09T22:00:00Z,28.8667,-90.4833,17.63,11111222 
WAVCIS,ioos:station:WAVCIS:CSI06:1,2010-03-09T23:00:00Z,28.8667,-90.4833,17.4,11111222 
WAVCIS,ioos:station:WAVCIS:CSI06:1,2010-03-10T00:00:00Z,28.8667,-90.4833,17.21,11111222 
WAVCIS,ioos:station:WAVCIS:CSI06:1,2010-03-10T01:00:00Z,28.8667,-90.4833,17.36,11111222 
WAVCIS,ioos:station:WAVCIS:CSI06:1,2010-03-10T02:00:00Z,28.8667,-90.4833,17.39,11111222 
WAVCIS,ioos:station:WAVCIS:CSI06:1,2010-03-10T03:00:00Z,28.8667,-90.4833,17.49,11111222 
WAVCIS,ioos:station:WAVCIS:CSI06:1,2010-03-10T04:00:00Z,28.8667,-90.4833,17.55,11111222 
WAVCIS,ioos:station:WAVCIS:CSI06:1,2010-03-10T05:00:00Z,28.8667,-90.4833,17.54,11111222 
WAVCIS,ioos:station:WAVCIS:CSI06:1,2010-03-10T06:00:00Z,28.8667,-90.4833,17.38,11111222 
WAVCIS,ioos:station:WAVCIS:CSI06:1,2010-03-10T07:00:00Z,28.8667,-90.4833,17.37,11111222 
WAVCIS,ioos:station:WAVCIS:CSI06:1,2010-03-10T08:00:00Z,28.8667,-90.4833,17.42,11111222 
WAVCIS,ioos:station:WAVCIS:CSI06:1,2010-03-10T09:00:00Z,28.8667,-90.4833,17.37,11111222 
WAVCIS,ioos:station:WAVCIS:CSI06:1,2010-03-10T10:00:00Z,28.8667,-90.4833,17.44,11111222 
WAVCIS,ioos:station:WAVCIS:CSI06:1,2010-03-10T11:00:00Z,28.8667,-90.4833,17.42,11111222 
WAVCIS,ioos:station:WAVCIS:CSI06:1,2010-03-10T12:00:00Z,28.8667,-90.4833,17.45,11111222 
WAVCIS,ioos:station:WAVCIS:CSI06:1,2010-03-10T13:00:00Z,28.8667,-90.4833,17.58,11111222 
WAVCIS,ioos:station:WAVCIS:CSI06:1,2010-03-10T14:00:00Z,28.8667,-90.4833,17.27,11111222 
WAVCIS,ioos:station:WAVCIS:CSI06:1,2010-03-10T15:00:00Z,28.8667,-90.4833,17.46,11111222 
WAVCIS,ioos:station:WAVCIS:CSI06:1,2010-03-10T16:00:00Z,28.8667,-90.4833,17.53,11111222 
WAVCIS,ioos:station:WAVCIS:CSI06:1,2010-03-10T17:00:00Z,28.8667,-90.4833,17.79,11111222 
WAVCIS,ioos:station:WAVCIS:CSI06:1,2010-03-10T18:00:00Z,28.8667,-90.4833,17.86,11111222 
WAVCIS,ioos:station:WAVCIS:CSI06:1,2010-03-10T19:00:00Z,28.8667,-90.4833,18.1,11111222 
WAVCIS,ioos:station:WAVCIS:CSI06:1,2010-03-10T20:00:00Z,28.8667,-90.4833,18.87,11111222 
WAVCIS,ioos:station:WAVCIS:CSI06:1,2010-03-10T21:00:00Z,28.8667,-90.4833,18.48,11111222 
WAVCIS,ioos:station:WAVCIS:CSI06:1,2010-03-10T22:00:00Z,28.8667,-90.4833,17.85,11111222 
WAVCIS,ioos:station:WAVCIS:CSI06:1,2010-03-10T23:00:00Z,28.8667,-90.4833,17.83,11111222 
WAVCIS,ioos:station:WAVCIS:CSI06:1,2010-03-11T00:00:00Z,28.8667,-90.4833,17.92,11111222 
WAVCIS,ioos:station:WAVCIS:CSI06:1,2010-03-11T01:00:00Z,28.8667,-90.4833,18.35,11111222 
WAVCIS,ioos:station:WAVCIS:CSI06:1,2010-03-11T02:00:00Z,28.8667,-90.4833,18.0,11111222 
WAVCIS,ioos:station:WAVCIS:CSI06:1,2010-03-11T03:00:00Z,28.8667,-90.4833,17.95,11111222 
WAVCIS,ioos:station:WAVCIS:CSI06:1,2010-03-11T04:00:00Z,28.8667,-90.4833,17.97,11111222 
WAVCIS,ioos:station:WAVCIS:CSI06:1,2010-03-11T05:00:00Z,28.8667,-90.4833,18.06,11111222 
WAVCIS,ioos:station:WAVCIS:CSI06:1,2010-03-11T06:00:00Z,28.8667,-90.4833,17.87,11111222 
WAVCIS,ioos:station:WAVCIS:CSI06:1,2010-03-11T07:00:00Z,28.8667,-90.4833,17.89,11111222 
WAVCIS,ioos:station:WAVCIS:CSI06:1,2010-03-11T08:00:00Z,28.8667,-90.4833,17.77,11111222 
WAVCIS,ioos:station:WAVCIS:CSI06:1,2010-03-11T09:00:00Z,28.8667,-90.4833,17.83,11111222 
WAVCIS,ioos:station:WAVCIS:CSI06:1,2010-03-11T10:00:00Z,28.8667,-90.4833,17.79,11111222 
WAVCIS,ioos:station:WAVCIS:CSI06:1,2010-03-11T11:00:00Z,28.8667,-90.4833,17.3,11111222 
WAVCIS,ioos:station:WAVCIS:CSI06:1,2010-03-11T12:00:00Z,28.8667,-90.4833,16.57,11111222 
WAVCIS,ioos:station:WAVCIS:CSI06:1,2010-03-11T13:00:00Z,28.8667,-90.4833,16.35,11111222 
WAVCIS,ioos:station:WAVCIS:CSI06:1,2010-03-11T14:00:00Z,28.8667,-90.4833,16.14,11111222 
WAVCIS,ioos:station:WAVCIS:CSI06:1,2010-03-11T15:00:00Z,28.8667,-90.4833,15.82,11111222 
WAVCIS,ioos:station:WAVCIS:CSI06:1,2010-03-11T16:00:00Z,28.8667,-90.4833,15.45,11111222 
WAVCIS,ioos:station:WAVCIS:CSI06:1,2010-03-11T17:00:00Z,28.8667,-90.4833,15.57,11111222 
WAVCIS,ioos:station:WAVCIS:CSI06:1,2010-03-11T18:00:00Z,28.8667,-90.4833,16.36,11111222 
WAVCIS,ioos:station:WAVCIS:CSI06:1,2010-03-11T19:00:00Z,28.8667,-90.4833,16.91,11111222 
WAVCIS,ioos:station:WAVCIS:CSI06:1,2010-03-11T20:00:00Z,28.8667,-90.4833,17.17,11111222 
WAVCIS,ioos:station:WAVCIS:CSI06:1,2010-03-11T21:00:00Z,28.8667,-90.4833,17.36,11111222 
WAVCIS,ioos:station:WAVCIS:CSI06:1,2010-03-11T22:00:00Z,28.8667,-90.4833,15.98,11111222 
WAVCIS,ioos:station:WAVCIS:CSI06:1,2010-03-11T23:00:00Z,28.8667,-90.4833,16.44,11111222 
WAVCIS,ioos:station:WAVCIS:CSI06:1,2010-03-12T00:00:00Z,28.8667,-90.4833,15.84,11111222 
WAVCIS,ioos:station:WAVCIS:CSI06:1,2010-03-12T01:00:00Z,28.8667,-90.4833,15.4,11111222 
WAVCIS,ioos:station:WAVCIS:CSI06:1,2010-03-12T02:00:00Z,28.8667,-90.4833,15.41,11111222 
WAVCIS,ioos:station:WAVCIS:CSI06:1,2010-03-12T03:00:00Z,28.8667,-90.4833,15.48,11111222 
WAVCIS,ioos:station:WAVCIS:CSI06:1,2010-03-12T04:00:00Z,28.8667,-90.4833,15.28,11111222 